Simultaneous Nadir Overpasses (SNOs) Predictions

Prediction of SNOs between NPP and TERRA Satellite Orbit:

Table of predicted SNOs for the next 14.0 days since TLE Epoch: 7/9/2022
Index Date (NPP) Time (NPP) Lat,Lon (NPP) SZA (NPP ) Date (TERRA) Time (TERRA) Lat,Lon (TERRA) SZA (TERRA ) Distance(km) Time Diff (sec)
1 07/11/2022 09:55:37 -70.00,-152.39 132.10 07/11/2022 09:56:49 -69.92,-151.82 132.21 23.55 72
2 07/11/2022 10:46:17 69.67, 15.41 47.56 07/11/2022 10:46:19 69.65, 15.45 47.54 2.68 2
3 07/11/2022 11:36:58 -69.53,-177.07 132.58 07/11/2022 11:35:49 -69.53,-177.08 132.57 0.41 69
4 07/14/2022 02:12:29 -69.74, -36.24 131.99 07/14/2022 02:13:14 -69.73, -36.21 132.01 2.22 45
5 07/14/2022 03:03:13 69.62, 131.24 47.90 07/14/2022 03:02:41 69.62, 131.29 47.89 1.99 32
6 07/16/2022 17:38:52 70.21, -88.51 48.93 07/16/2022 17:40:02 70.07, -87.47 48.75 42.04 70
7 07/16/2022 18:29:26 -69.70, 79.59 131.61 07/16/2022 18:29:37 -69.69, 79.62 131.62 1.72 11
8 07/16/2022 19:20:10 69.58,-112.93 48.28 07/16/2022 19:19:04 69.57,-112.89 48.28 2.02 66
9 07/19/2022 09:55:41 69.75, 27.95 48.91 07/19/2022 09:56:30 69.74, 27.95 48.90 0.25 49
10 07/19/2022 10:46:23 -69.65,-164.59 131.18 07/19/2022 10:46:00 -69.64,-164.56 131.20 1.92 23
11 07/19/2022 11:36:49 68.57, 4.22 47.71 07/19/2022 11:35:43 68.63, 1.79 47.86 98.60 66
12 07/22/2022 01:22:07 -70.50, -24.75 129.79 07/22/2022 01:23:15 -70.40, -22.88 129.96 70.72 68
13 07/22/2022 02:12:38 69.71, 143.77 49.38 07/22/2022 02:12:53 69.68, 143.75 49.35 3.19 15
14 07/22/2022 03:03:19 -69.56, -48.69 130.77 07/22/2022 03:02:23 -69.58, -48.76 130.74 3.37 56



Historial Predications of SNOs between NPP and TERRA
